Regional Weather Roundup
Issued by NWS Sterling, VA

Home | Current Version | Previous Version | Graphics & Text | Print | Product List | Glossary On
Versions: 1 2 3 4 5 6 7 8 9 10 11 12 13 14 15 16 17 18 19 20 21 22 23 24 25 26 27
000
ASUS41 KLWX 231810
RWRLWX

REGIONAL WEATHER ROUNDUP
NATIONAL WEATHER SERVICE BALTIMORE MD/WASHINGTON DC
200 PM EDT THU MAR 23 2017

Note: "FAIR" indicates few or no clouds below 12,000 feet
with no significant weather and/or obstructions to visibility.
 TC=TEMPERATURE CELSIUS

 * =Non NWS site. Station does not report precipitation (e.g. rain,
    snow, etc.), thunder, or fog.

DCZ001-MDZ009-015-VAZ040>042-051-053>054-231900-
WASHINGTON METRO

CITY           SKY/WX    TMP DP  RH WIND       PRES   REMARKS
WASHINGTON NAT SUNNY     42   6  22 SE6       30.63F
DULLES         MOSUNNY   42   4  20 VRB3      30.60F
ANDREWS AFB    SUNNY     41   6  23 NW6       30.59F
FT BELVOIR     SUNNY     42   6  21 NW3       30.62F
QUANTICO       SUNNY     42  17  36 S8        30.64F
COLLEGE PARK*  SUNNY     41   5  22 CALM      30.61F
LEESBURG*      SUNNY     45  12  26 W5        30.60F
MANASSAS*      SUNNY     43   5  20 VRB5      30.61F
GAITHERSBURG*  SUNNY     43   5  21 CALM      30.63F

$$

MDZ006>007-011-014-231900-
BALTIMORE METRO

CITY           SKY/WX    TMP DP  RH WIND       PRES   REMARKS
BWI AIRPORT    MOSUNNY   42   2  18 N7        30.60F
MD SCIENCE CTR   N/A     45   6  20 MISG      30.63F
MARTIN STATE   SUNNY     41  19  42 SE9       30.63F
ANNAPOLIS      SUNNY     37  16  42 SE10      30.62F
FORT MEADE*    SUNNY     43   1  17 NW3       30.62F

$$

MDZ012-015-019>023-231900-
MARYLAND EASTERN SHORE

CITY           SKY/WX    TMP DP  RH WIND       PRES   REMARKS
OCEAN CITY     SUNNY     37  15  40 E12       30.63F
SALISBURY        N/A    N/A N/A N/A MISG      30.61F
BAY BRIDGE AP* SUNNY     39   7  26 NW5       30.63F
CAMBRIDGE*     SUNNY     39   7  26 N6        30.62F
EASTON*        SUNNY     41   9  26 NW3       30.65F

$$

MDZ017>025-231900-
SOUTHERN MARYLAND

CITY           SKY/WX    TMP DP  RH WIND       PRES   REMARKS
PATUXENT RIVER MOSUNNY   39  13  34 NW3       30.63F
ST INIGOES     NOT AVBL
LEONARDTOWN*   SUNNY     39   9  28 NE3       30.63F

$$

MDZ003>005-231900-
NORTH CENTRAL MARYLAND

CITY           SKY/WX    TMP DP  RH WIND       PRES   REMARKS
FREDERICK*     SUNNY     43   9  24 CALM      30.63F
HAGERSTOWN APT SUNNY     40   4  22 VRB3      30.57F
WESTMINSTER*   SUNNY     39  10  30 SW7       30.57F

$$

MDZ501>502-231900-
WESTERN MARYLAND

CITY           SKY/WX    TMP DP  RH WIND       PRES   REMARKS
OAKLAND*       SUNNY     37   5  25 SE5       30.42F
CUMBERLAND*    SUNNY     45   5  19 S6        30.58F

$$

VAZ025>031-231900-
SHENANDOAH VALLEY

CITY           SKY/WX    TMP DP  RH WIND       PRES   REMARKS
WINCHESTER*    SUNNY     41   7  24 CALM      30.56F
FRONT ROYAL*   SUNNY     43  10  26 SE7       30.55F
LURAY*         SUNNY     45  16  31 CALM      30.54F
NEW MARKET*    SUNNY     45  12  26 S3        30.53F
STAUNTON*      SUNNY     43  13  29 SW7       30.55F
WAYNESBORO*    SUNNY     43  12  28 SE6       30.53F

$$

WVZ021-048>050-054>055-231900-
EASTERN WEST VIRGINIA PANHANDLE

CITY           SKY/WX    TMP DP  RH WIND       PRES   REMARKS
MARTINSBURG    SUNNY     42   5  21 VRB3      30.57F
PETERSBURG*    SUNNY     47  16  28 CALM      30.51F

$$

VAZ036>039-050-231900-
CENTRAL FOOTHILLS

CITY           SKY/WX    TMP DP  RH WIND       PRES   REMARKS
CHARLOTTESVILL SUNNY     46  10  23 CALM      30.57F
CULPEPER*      SUNNY     45  14  28 W7        30.61F
ORANGE*        SUNNY     45  14  29 CALM      30.60F
GORDONSVILLE*  SUNNY     45  10  24 W5        30.58F
WARRENTON*     SUNNY     46  -1  13 NW6       30.59F

$$

VAZ055>057-231900-
NORTH AND CENTRAL PIEDMONT

CITY           SKY/WX    TMP DP  RH WIND       PRES   REMARKS
FREDERICKSBRG* SUNNY     44  11  26 SW3       30.62F
STAFFORD*      SUNNY     43   9  25 CALM      30.66F

$$

NCZ024-NYZ072-PAZ021-071-VAZ022-071-231900-
OTHER REGIONAL OBSERVATIONS

CITY           SKY/WX    TMP DP  RH WIND       PRES   REMARKS
NEW YORK CITY  SUNNY     38   0  20 VRB5      30.57F
PHILADELPHIA   MOSUNNY   38   6  26 SW8       30.60F
PITTSBURGH     PTSUNNY   41   8  25 E9        30.48F
ROANOKE        MOSUNNY   47  12  24 SE13      30.54F
RICHMOND       MOSUNNY   47  13  25 CALM      30.61F
RALEIGH        MOSUNNY   51  16  24 VRB3      30.57F

$$

ANZ530>537-231900-
MARINE OBSERVATIONS

STATION/POSITION TIME  TEMP    WIND        PRES
                       AIR SEA DIR/SP/G
                 (UTC) (F)     (DEG/KT/KT) (MB)
THOMAS PT LIGHT  1800   34 43   90/  4/  5   N/A
BALT KEY BRIDGE  1748   35     120/  8/  9 1036.9F
COVE POINT       1748   33      40/  4/  5 1038.1F
LEWISETTA        1748   35 47   80/  4/  6 1037.5F
SOLOMONS ISLAND  1748   35 45   90/  6/  8   N/A
PINEY POINT      1748          180/  4/  5   N/A

$$





USA.gov is the U.S. government's official web portal to all federal, state and local government web resources and services.